| time (UTC) | temp F | wind direction | speed MPH | gust MPH | rain 1hr in | rain 24hr in | rain mn in | humidity % | barometer mb |
| 20260504213023 | 67 | 87 | 1.0 | 3.0 | 0.00 | 0.00 | 0.00 | 91 | 1016.5 |
| 20260504211522 | 66 | 79 | 1.0 | 2.0 | 0.00 | 0.00 | 0.00 | 94 | 1016.3 |
| 20260504210016 | 64 | 88 | 0.0 | 0.0 | 0.00 | 0.00 | 0.00 | 93 | 1016.3 |
| 20260504204528 | 64 | 92 | 1.0 | 2.0 | 0.00 | 0.00 | 0.00 | 93 | 1016.0 |
| 20260504203004 | 63 | 82 | 1.0 | 2.0 | 0.00 | 0.00 | 0.00 | 93 | 1015.8 |
| 20260504201504 | 63 | 89 | 0.0 | 2.0 | 0.00 | 0.00 | 0.00 | 93 | 1015.5 |
| 20260504200004 | 64 | 91 | 0.0 | 1.0 | 0.00 | 0.00 | 0.00 | 92 | 1015.3 |
| 20260504194503 | 65 | 73 | 1.0 | 3.0 | 0.00 | 0.00 | 0.00 | 92 | 1015.1 |
| 20260504193005 | 65 | 74 | 2.0 | 3.0 | 0.00 | 0.00 | 0.00 | 93 | 1015.0 |
| 20260504191504 | 64 | 80 | 1.0 | 2.0 | 0.00 | 0.00 | 0.00 | 93 | 1015.0 |
| 20260504190005 | 64 | 77 | 1.0 | 2.0 | 0.00 | 0.00 | 0.00 | 94 | 1014.9 |
| 20260504184504 | 63 | 80 | 0.0 | 0.0 | 0.00 | 0.00 | 0.00 | 94 | 1014.8 |
| 20260504183008 | 62 | 89 | 0.0 | 0.0 | 0.00 | 0.00 | 0.00 | 93 | 1014.7 |
| 20260504181506 | 63 | 89 | 0.0 | 2.0 | 0.00 | 0.00 | 0.00 | 94 | 1014.6 |
| 20260504180004 | 63 | 89 | 0.0 | 2.0 | 0.00 | 0.00 | 0.00 | 94 | 1014.5 |
| 20260504174507 | 63 | 79 | 1.0 | 2.0 | 0.00 | 0.00 | 0.00 | 94 | 1014.5 |
| 20260504173004 | 63 | 84 | 0.0 | 2.0 | 0.00 | 0.00 | 0.00 | 94 | 1014.4 |
| 20260504171506 | 63 | 77 | 0.0 | 0.0 | 0.00 | 0.00 | 0.00 | 93 | 1014.4 |
| 20260504081510 | 72 | 128 | 0.0 | 0.0 | 0.00 | 0.62 | 0.49 | 90 | 1015.3 |
| 20260504050018 | 79 | 73 | 0.0 | 4.0 | 0.00 | 0.62 | 0.49 | 77 | 1014.4 |
| 20260504044513 | 78 | 103 | 0.0 | 4.0 | 0.00 | 0.62 | 0.49 | 78 | 1014.5 |
| 20260504043014 | 79 | 103 | 1.0 | 4.0 | 0.00 | 0.62 | 0.49 | 77 | 1014.6 |
| 20260504041534 | 79 | 77 | 0.0 | 2.0 | 0.00 | 0.62 | 0.49 | 78 | 1014.6 |
| 20260504040022 | 80 | 49 | 0.0 | 5.0 | 0.00 | 0.62 | 0.49 | 79 | 1014.6 |
| 20260504034518 | 80 | 70 | 0.0 | 3.0 | 0.00 | 0.62 | 0.49 | 78 | 1014.6 |
| 20260504033007 | 79 | 56 | 0.0 | 3.0 | 0.00 | 0.62 | 0.49 | 75 | 1014.7 |
| 20260504031512 | 80 | 307 | 0.0 | 3.0 | 0.00 | 0.62 | 0.49 | 74 | 1014.8 |
| 20260504030016 | 79 | 219 | 0.0 | 6.0 | 0.00 | 0.62 | 0.49 | 78 | 1015.2 |
| 20260504024522 | 78 | 17 | 1.0 | 7.0 | 0.00 | 0.62 | 0.49 | 76 | 1015.6 |
| 20260504023021 | 79 | 12 | 0.0 | 4.0 | 0.00 | 0.62 | 0.49 | 81 | 1015.8 |
| 20260504021520 | 79 | 73 | 0.0 | 6.0 | 0.00 | 0.62 | 0.49 | 80 | 1016.1 |
| 20260504020016 | 79 | 60 | 1.0 | 4.0 | 0.00 | 0.62 | 0.49 | 79 | 1016.3 |
| 20260504014522 | 80 | 229 | 2.0 | 7.0 | 0.00 | 0.62 | 0.49 | 78 | 1016.3 |
| 20260504013028 | 80 | 305 | 0.0 | 6.0 | 0.00 | 0.62 | 0.49 | 78 | 1016.4 |
| 20260504011523 | 80 | 77 | 2.0 | 6.0 | 0.00 | 0.62 | 0.49 | 76 | 1016.9 |
| 20260504010012 | 80 | 256 | 1.0 | 6.0 | 0.00 | 0.62 | 0.49 | 78 | 1016.9 |
| 20260504004515 | 79 | 99 | 1.0 | 4.0 | 0.00 | 0.62 | 0.49 | 78 | 1017.0 |
| 20260504003004 | 79 | 70 | 1.0 | 4.0 | 0.00 | 0.62 | 0.49 | 78 | 1017.0 |
| 20260504001511 | 79 | 82 | 1.0 | 5.0 | 0.00 | 0.62 | 0.49 | 79 | 1017.0 |
| 20260504000008 | 78 | 72 | 1.0 | 6.0 | 0.00 | 0.62 | 0.49 | 82 | 1017.0 |
| 20260503234510 | 78 | 110 | 1.0 | 8.0 | 0.00 | 0.62 | 0.49 | 82 | 1016.9 |
| 20260503233019 | 77 | 80 | 1.0 | 8.0 | 0.00 | 0.62 | 0.49 | 84 | 1017.1 |
| 20260503231504 | 76 | 76 | 2.0 | 7.0 | 0.00 | 0.62 | 0.49 | 84 | 1017.2 |
| 20260503230011 | 75 | 130 | 1.0 | 5.0 | 0.00 | 0.62 | 0.49 | 85 | 1017.0 |
| 20260503224507 | 74 | 91 | 0.0 | 6.0 | 0.00 | 0.62 | 0.49 | 88 | 1017.0 |
| 20260503223012 | 74 | 14 | 0.0 | 5.0 | 0.00 | 0.62 | 0.49 | 89 | 1016.9 |
| 20260503221518 | 73 | 58 | 0.0 | 3.0 | 0.00 | 0.62 | 0.49 | 90 | 1016.8 |
| 20260503220004 | 72 | 43 | 2.0 | 9.0 | 0.00 | 0.62 | 0.49 | 91 | 1016.7 |
| 20260503214508 | 71 | 82 | 0.0 | 4.0 | 0.00 | 0.62 | 0.49 | 92 | 1016.6 |